Weather History for Spokane, WA

Change the Weather History Date:

Friday, March 8, 2013

  Actual Average Record
Temperature  
Mean Temperature 35 °F 38 °F  
Max Temperature 41 °F 46 °F 68 °F (1889)
Min Temperature 29 °F 30 °F 12 °F (2002)
Degree Days  
Heating Degree Days 30 27  
Month to date heating degree days 209 225  
Since 1 July heating degree days 4746 5054  
Cooling Degree Days 0 0  
Month to date cooling degree days 0 0  
Year to date cooling degree days 0 0  
Moisture  
Dew Point 31 °F    
Average Humidity 88    
Maximum Humidity 100    
Minimum Humidity 76    
Precipitation  
Precipitation 0.00 in 0.05 in 0.49 in (1966)
Month to date precipitation 0.36 0.42  
Year to date precipitation 2.73 3.54  
Snow  
Snow 0.00 in 0.10 in 3.30 in (1951)
Month to date snowfall 0.9 1.1  
Since 1 July snowfall 43.5 41.4  
Snow Depth 0.00 in    
Sea Level Pressure  
Sea Level Pressure 30.08 in    
Wind  
Wind Speed 4 mph (NE)    
Max Wind Speed 9 mph    
Max Gust Speed 13 mph    
Visibility 4 miles    
Events Fog    
T = Trace of Precipitation, MM = Missing Value Source: NWS Daily Summary

Daily Weather History Graph

Daily Weather History Graph

Search for Another Location

Airport:

Trip Planner

Search our weather history database for the weather conditions in past years. The results will help you decide how hot, cold, wet, or windy it might be!

Date:

Astronomy

Mar. 08, 2013 Rise Set
Actual Time 6:16 AM PST 5:45 PM PST
Civil Twilight 5:45 AM PST 6:16 PM PST
Nautical Twilight 5:10 AM PST 6:52 PM PST
Astronomical Twilight 4:33 AM PST 7:28 PM PST
Moon 4:15 AM PST (3/8) 2:36 PM PST (3/8)
Length of Visible Light 12h 30m
Length of Day
11h 29m
Waning Crescent, 11% of the Moon is Illuminated
Mar 8
Waning Crescent
Mar 11
New
Mar 19
First Quarter
Mar 27
Full
Apr 2
Last Quarter

Hourly Weather History & Observations

Time (PST) Temp. Windchill Dew Point Humidity Pressure Visibility Wind Dir Wind Speed Gust Speed Precip Events Conditions
12:53 AM 32.0 °F 26.4 °F 30.0 °F 92% 30.06 in 0.5 mi NE 5.8 mph - N/A Fog Fog
1:15 AM 32.0 °F 26.4 °F 30.2 °F 93% 30.02 in 0.1 mi NE 5.8 mph - N/A Fog Fog
1:53 AM 32.0 °F 27.5 °F 30.9 °F 96% 30.06 in 0.1 mi ENE 4.6 mph - N/A Fog Fog
2:53 AM 30.9 °F 27.5 °F 30.0 °F 96% 30.06 in 0.1 mi ENE 3.5 mph - N/A Fog Light Freezing Fog
3:53 AM 28.9 °F 23.9 °F 28.0 °F 96% 30.06 in 0.1 mi NE 4.6 mph - N/A Fog Light Freezing Fog
4:53 AM 28.9 °F 23.9 °F 28.0 °F 96% 30.06 in 0.1 mi NE 4.6 mph - N/A Fog Light Freezing Fog
5:53 AM 28.9 °F 21.9 °F 28.0 °F 96% 30.07 in 0.1 mi ENE 6.9 mph - N/A Fog Light Freezing Fog
6:53 AM 28.9 °F 21.9 °F 28.0 °F 96% 30.08 in 0.1 mi NNE 6.9 mph - N/A Fog Light Freezing Fog
7:53 AM 28.9 °F 23.9 °F 28.0 °F 96% 30.09 in 0.1 mi ENE 4.6 mph - N/A Fog Light Freezing Fog
8:53 AM 30.0 °F 23.2 °F 28.0 °F 92% 30.09 in 0.1 mi NE 6.9 mph - N/A Fog Light Freezing Fog
9:42 AM 30.2 °F 23.4 °F 28.4 °F 93% 30.03 in 0.1 mi North 6.9 mph - N/A Fog Light Freezing Fog
9:53 AM 30.9 °F 24.3 °F 30.0 °F 96% 30.09 in 0.1 mi NNE 6.9 mph - N/A Fog Light Freezing Fog
10:53 AM 32.0 °F 26.4 °F 30.9 °F 96% 30.10 in 0.1 mi ENE 5.8 mph - N/A Fog Fog
11:53 AM 32.0 °F 27.5 °F 32.0 °F 100% 30.09 in 0.1 mi ENE 4.6 mph - N/A Fog Fog
12:53 PM 34.0 °F 28.8 °F 33.1 °F 96% 30.08 in 0.1 mi NNE 5.8 mph - N/A   Overcast
1:53 PM 35.1 °F 30.1 °F 33.1 °F 92% 30.07 in 1.0 mi North 5.8 mph - N/A   Overcast
2:13 PM 35.6 °F 29.9 °F 33.8 °F 93% 30.02 in 3.0 mi NE 6.9 mph - N/A   Overcast
2:53 PM 37.0 °F 34.5 °F 33.1 °F 86% 30.07 in 10.0 mi North 3.5 mph - N/A   Mostly Cloudy
3:06 PM 37.4 °F 33.8 °F 33.8 °F 87% 30.02 in 10.0 mi NNE 4.6 mph - N/A   Mostly Cloudy
3:28 PM 39.2 °F - 33.8 °F 81% 30.01 in 10.0 mi Calm Calm - N/A   Scattered Clouds
3:53 PM 39.0 °F - 33.1 °F 79% 30.07 in 10.0 mi Calm Calm - N/A   Partly Cloudy
4:53 PM 39.9 °F - 33.1 °F 77% 30.07 in 10.0 mi Calm Calm - N/A   Scattered Clouds
5:53 PM 39.0 °F - 32.0 °F 76% 30.08 in 10.0 mi Calm Calm - N/A   Partly Cloudy
6:53 PM 35.1 °F 32.2 °F 30.9 °F 85% 30.10 in 10.0 mi South 3.5 mph - N/A   Partly Cloudy
7:53 PM 33.1 °F - 30.0 °F 89% 30.12 in 10.0 mi Calm Calm - N/A   Partly Cloudy
8:53 PM 30.0 °F 25.2 °F 27.0 °F 88% 30.14 in 10.0 mi SW 4.6 mph - N/A   Partly Cloudy
9:53 PM 32.0 °F 28.7 °F 30.0 °F 92% 30.14 in 10.0 mi SW 3.5 mph - N/A   Mostly Cloudy
10:53 PM 34.0 °F 28.8 °F 30.0 °F 85% 30.14 in 10.0 mi SW 5.8 mph - N/A   Mostly Cloudy
11:53 PM 34.0 °F 31.0 °F 28.9 °F 82% 30.16 in 10.0 mi WSW 3.5 mph - N/A   Overcast